Theta_e
319 320 319 319 319 317 315 316 315 315 315 315 316 316 316 316 317 317 317 318 318 318 318 316 314 314 315 315 314 316 315 316 326 336 341 344 338 331 331 334 336 337 340 348 355 356 356 355 352 351 350 349 349 347 342 342 340 339 341 339 332 337 343 345 352 352 354 358 356 355 353 354 357 356 353 353 354 355 356 355 356 356 357 358 357 356 357 357
318 319 319 319 319 318 316 315 315 315 314 315 315 315 316 316 316 316 318 317 317 318 318 317 315 314 315 314 315 315 315 321 331 338 339 339 333 331 332 335 337 337 345 356 358 354 352 349 348 348 347 349 349 344 339 341 338 339 342 337 334 342 345 345 349 349 352 353 351 351 351 352 354 353 351 356 356 355 357 357 356 356 356 357 358 356 356 356
317 317 318 319 319 318 317 315 315 314 314 315 315 315 316 316 316 316 317 317 317 318 317 318 315 315 315 315 316 313 320 331 337 339 336 333 330 330 333 334 338 338 346 358 357 350 349 346 348 347 347 349 348 345 339 340 340 339 342 339 340 344 344 346 348 349 350 348 347 347 349 350 349 349 350 354 356 356 358 357 357 357 356 355 355 355 353 353
316 316 318 318 319 319 318 317 315 315 314 314 314 315 315 316 316 316 317 317 317 317 318 318 316 316 315 316 315 315 328 338 338 341 335 331 330 331 333 334 341 344 347 356 357 350 347 348 348 347 348 349 346 345 340 340 342 341 342 342 342 344 344 347 346 347 347 346 347 346 347 348 347 348 349 352 355 356 356 355 357 357 356 353 352 353 352 352
315 316 317 317 318 318 318 318 317 315 314 314 314 314 315 316 316 316 317 317 317 317 318 318 317 316 316 318 315 319 332 335 336 342 333 330 330 331 334 334 339 345 350 355 355 349 346 348 346 346 349 346 344 344 342 341 341 341 341 342 341 342 343 343 344 346 347 347 348 345 346 348 348 347 348 350 354 355 353 352 355 355 355 353 352 352 353 355
316 316 317 317 317 318 318 318 318 317 315 314 313 314 315 315 316 317 317 317 317 317 317 317 317 316 317 319 318 326 333 331 342 341 329 331 330 331 334 334 335 341 351 356 354 349 346 346 345 348 347 345 345 343 343 342 340 342 342 343 342 342 343 342 345 347 348 346 344 345 347 346 346 346 347 348 350 352 351 351 353 353 355 355 354 353 353 354
317 317 317 317 316 317 318 318 318 318 316 315 314 314 315 316 316 316 317 317 317 317 317 318 317 316 317 319 323 332 332 332 344 337 329 331 329 331 333 333 334 340 351 355 351 346 343 343 344 346 346 343 342 342 344 343 341 342 343 343 343 342 343 344 347 348 347 344 345 346 345 345 344 344 346 347 348 348 349 351 353 353 355 354 355 354 353 354
319 319 319 318 316 316 317 318 318 318 317 315 314 314 314 315 316 316 317 317 317 317 318 317 316 316 315 319 328 332 332 339 340 331 329 330 330 331 333 334 338 345 352 350 346 342 340 342 338 340 343 341 342 342 343 342 342 343 343 343 343 343 343 344 345 345 347 348 350 348 344 344 343 343 346 347 346 346 348 351 352 353 353 353 353 354 355 355
320 320 320 319 318 317 317 317 318 318 317 316 315 314 314 315 315 316 317 317 317 316 317 317 316 315 316 325 333 329 336 344 335 327 327 331 334 330 333 342 346 347 349 346 343 339 338 338 337 338 339 340 340 341 342 341 342 342 343 342 342 342 343 345 344 344 346 348 351 349 346 344 341 343 346 347 347 345 347 348 349 350 350 351 353 353 353 353
320 320 320 319 318 318 318 318 318 318 317 316 315 314 314 314 316 316 316 317 317 317 317 317 316 315 320 331 331 326 341 346 337 334 335 340 343 337 337 347 351 347 343 343 341 338 337 337 338 338 339 341 337 339 343 342 341 343 343 342 342 343 343 343 344 345 346 346 349 349 349 345 342 345 346 347 347 345 346 345 346 347 347 350 350 351 352 353
319 319 319 319 319 318 318 318 318 318 317 317 315 314 314 316 317 317 317 317 316 317 317 317 315 314 322 330 324 327 342 348 346 344 344 348 348 345 345 347 348 345 339 339 338 339 337 336 337 337 338 339 338 339 339 340 343 342 341 341 341 343 344 344 343 345 346 347 347 350 350 347 346 347 345 346 346 345 345 345 346 346 347 349 349 351 352 353
318 317 318 318 318 318 318 317 317 318 317 317 315 314 316 319 321 320 318 316 316 317 316 317 314 315 326 330 324 329 336 341 347 346 346 347 344 345 346 344 345 342 339 338 338 338 338 336 335 336 338 338 339 340 337 339 341 340 341 344 342 342 344 343 344 344 347 349 349 350 349 349 353 348 344 344 345 345 345 345 347 347 347 347 348 349 351 352
316 316 316 316 317 317 317 317 318 317 317 316 314 315 319 322 322 320 319 316 316 316 315 316 314 317 328 330 324 328 330 333 340 343 343 343 342 342 342 342 342 341 339 337 337 337 336 336 334 334 336 337 338 340 338 338 341 343 343 343 342 342 341 342 345 344 348 350 350 350 341 343 354 348 342 342 343 344 344 345 346 347 347 345 347 347 348 349
315 316 316 316 316 316 317 317 317 317 317 315 314 317 322 323 322 321 321 317 315 315 316 315 313 319 328 326 324 328 328 328 332 337 338 337 340 339 339 340 339 340 340 338 337 337 336 335 335 334 335 337 338 338 337 338 341 342 348 354 346 332 334 341 344 343 348 348 349 349 334 338 351 345 342 344 345 345 344 345 346 345 346 345 346 347 347 348
316 316 316 316 316 316 316 316 317 317 317 315 316 320 323 323 322 323 324 321 317 314 314 315 316 322 327 323 325 327 326 326 329 332 330 331 336 335 337 338 337 338 338 337 337 336 336 334 334 333 334 337 337 337 338 342 342 340 350 351 345 327 331 343 343 343 347 346 348 348 335 339 349 344 342 346 346 346 344 345 345 343 344 344 345 347 345 345
316 316 316 316 316 316 316 316 317 317 317 315 318 322 323 323 322 322 323 322 320 315 315 322 325 325 324 321 325 327 325 325 325 327 327 327 331 332 333 334 335 336 335 337 337 336 337 335 334 333 333 336 336 337 339 336 335 336 344 333 330 325 329 337 341 342 345 346 347 346 340 342 347 344 343 345 344 345 344 344 345 343 343 345 345 347 345 345
317 317 317 316 316 316 316 316 316 317 316 316 319 323 323 323 322 321 322 323 319 317 319 326 331 327 325 324 324 325 326 326 326 326 327 327 330 332 332 331 332 333 334 335 335 336 336 334 334 333 333 336 336 336 331 321 321 330 333 325 325 331 327 328 337 342 343 346 347 346 345 343 345 346 343 343 343 344 347 346 344 343 344 345 345 346 345 345
317 317 317 317 317 316 316 316 316 317 316 317 321 323 322 324 324 322 326 327 324 325 326 328 327 322 323 324 323 324 325 326 327 326 327 328 332 331 331 330 330 331 331 333 335 335 334 335 335 333 334 335 335 334 324 319 323 325 325 321 323 330 329 327 333 340 343 344 345 345 344 344 345 346 344 343 343 345 352 355 352 347 344 345 345 345 346 345
317 318 318 318 317 317 316 316 316 317 316 318 322 323 326 330 329 326 328 331 329 330 330 328 325 319 319 323 324 324 325 325 326 326 327 328 330 330 330 330 329 329 329 331 334 334 335 335 333 330 330 333 336 334 330 332 335 330 329 325 322 323 326 333 336 339 342 341 343 344 342 346 351 350 346 344 344 347 351 361 366 356 346 346 345 345 347 347
318 318 318 318 318 317 316 316 316 316 317 319 321 326 332 331 331 330 329 329 331 331 328 327 326 323 322 324 325 325 326 325 325 325 326 327 327 328 328 328 328 329 329 331 332 333 334 333 330 329 331 334 335 335 336 338 338 337 336 330 325 321 321 333 341 339 339 337 337 346 347 349 356 357 352 346 346 348 349 359 373 363 350 347 347 346 348 348
318 318 318 318 318 317 316 316 316 317 317 317 322 329 332 325 326 328 325 325 327 329 329 328 326 325 325 325 325 327 326 325 326 325 325 325 325 325 326 326 327 327 329 330 331 333 333 329 329 333 334 334 334 334 335 335 337 338 334 327 323 322 323 331 339 337 338 334 333 349 351 348 355 354 351 349 346 348 351 354 364 361 354 349 349 347 347 348
317 318 318 318 318 317 316 315 316 317 317 320 327 333 328 323 325 325 325 325 325 326 326 326 326 326 326 326 326 327 326 326 326 325 325 325 324 324 325 327 326 327 328 329 330 330 328 327 330 334 333 333 333 334 333 334 336 334 331 325 320 324 327 329 336 336 337 333 332 348 349 346 354 351 349 350 346 348 352 351 355 356 355 351 348 347 349 350
317 318 318 318 318 316 315 316 316 317 319 325 330 330 324 324 326 325 326 325 325 327 325 324 325 324 325 325 325 325 325 326 325 325 326 325 324 324 324 326 326 327 328 328 329 323 320 326 333 333 332 332 331 332 333 332 332 332 329 321 318 326 324 320 329 336 336 334 335 343 342 344 353 352 349 350 348 351 351 351 354 354 354 354 348 347 350 349
318 318 318 318 317 316 315 315 317 319 323 328 326 325 324 324 326 325 325 325 325 326 326 326 325 325 325 324 326 325 323 324 324 325 326 324 324 324 324 325 325 327 327 328 329 324 323 328 333 332 331 332 331 331 332 328 326 329 331 324 321 327 325 322 329 334 334 335 339 339 329 331 346 350 349 348 349 353 353 354 355 354 354 353 349 349 349 350
318 317 318 318 317 316 314 317 323 323 325 327 325 326 325 324 326 325 326 326 325 326 326 326 326 326 326 326 326 325 323 324 324 325 326 326 325 324 324 325 324 325 326 327 328 326 327 329 331 331 331 332 330 330 331 327 322 322 330 331 327 330 330 330 333 329 322 322 334 335 318 319 337 343 342 348 356 359 357 356 356 355 355 353 351 350 349 357
317 317 318 317 317 316 315 322 325 322 325 327 326 327 323 324 327 325 327 325 319 324 326 325 325 324 324 325 326 324 322 323 325 325 325 327 326 325 324 324 325 324 325 328 327 326 328 329 330 330 330 332 331 328 330 331 321 316 327 334 332 334 331 329 329 322 313 315 335 337 319 318 334 344 347 354 359 361 357 354 356 358 357 353 352 350 354 355
316 317 317 317 317 316 318 323 321 320 327 327 326 326 323 325 326 326 328 319 315 324 327 324 324 324 323 325 326 323 319 321 325 325 325 327 327 326 324 324 325 324 326 326 320 321 328 328 328 330 330 330 328 326 330 333 322 317 329 333 332 332 330 329 327 320 317 320 331 334 326 326 336 350 355 354 355 357 353 352 356 359 359 354 351 353 355 351
317 317 316 317 317 316 318 321 321 324 325 326 326 325 323 324 324 327 326 316 318 326 328 325 324 324 325 325 325 323 321 323 324 323 325 326 326 326 324 323 325 323 326 323 314 320 328 327 327 329 329 328 327 328 330 333 326 325 332 332 332 333 331 331 325 320 322 319 315 323 330 327 332 346 353 351 351 352 352 350 356 359 359 356 349 354 353 352
316 316 317 316 316 318 322 322 324 324 322 326 326 324 324 324 324 327 322 316 322 325 326 324 323 323 325 325 325 324 323 324 324 324 326 325 325 326 324 324 324 323 326 324 319 323 327 327 328 329 328 328 329 331 332 331 329 329 332 330 331 331 330 331 326 319 319 316 311 317 323 319 322 332 339 343 343 346 354 353 354 357 356 356 350 356 354 352
316 316 316 316 316 321 322 321 323 322 322 326 325 324 324 323 324 323 316 317 321 324 324 323 323 323 324 324 323 323 323 323 325 325 325 325 325 325 324 325 325 323 326 325 324 325 326 327 329 329 329 329 330 331 331 330 330 330 329 329 328 329 330 328 326 321 315 314 312 315 321 316 317 326 333 338 341 344 352 353 354 355 352 354 350 353 353 350
315 315 315 315 316 318 318 320 322 320 321 324 324 324 324 324 325 316 315 322 321 323 324 323 325 325 323 323 323 323 323 323 326 324 324 325 325 324 323 323 323 322 321 321 323 325 326 326 327 328 328 328 330 329 330 331 329 330 330 326 319 319 322 319 318 319 313 312 314 317 322 317 318 332 343 342 344 341 344 347 354 358 354 355 350 352 354 350
315 315 315 314 315 316 316 318 317 318 321 324 324 324 323 323 320 313 317 321 317 320 326 324 325 325 324 324 324 323 322 323 325 324 324 323 323 325 322 321 321 316 311 313 317 320 324 326 326 327 327 328 328 325 326 328 328 330 326 320 314 311 314 313 312 313 312 313 316 319 322 316 320 337 347 343 343 340 343 343 348 355 357 358 352 354 356 352
314 314 315 316 316 316 316 316 317 319 322 324 323 325 323 318 315 315 318 318 316 322 327 325 325 325 324 323 323 324 323 322 325 324 324 325 323 324 323 323 324 318 311 312 313 312 315 323 326 325 325 327 327 322 317 319 324 326 320 314 311 311 312 312 311 312 312 313 316 321 322 314 319 336 345 345 345 344 347 346 346 353 360 358 352 355 356 354
315 315 315 317 316 316 316 315 318 321 323 324 325 325 321 315 316 319 319 320 322 326 326 325 325 325 324 323 323 325 322 321 325 324 323 324 322 321 322 323 324 323 320 315 312 311 309 313 322 325 324 326 328 325 321 322 323 324 326 321 313 310 311 311 310 310 311 311 313 318 318 314 320 338 349 347 348 349 350 348 349 355 360 359 356 359 358 355
315 316 317 319 319 319 319 316 319 322 322 325 326 323 317 312 315 317 319 323 325 326 327 327 326 323 322 324 325 326 323 321 324 325 324 323 321 320 323 324 323 325 322 313 312 314 308 310 323 327 326 326 326 326 328 325 320 322 328 322 313 315 315 310 310 311 310 310 312 312 315 323 334 344 348 348 351 352 352 351 350 353 358 360 361 363 359 356
316 319 320 322 323 323 325 323 323 324 323 325 323 319 316 317 320 320 322 325 325 326 325 323 323 320 316 320 323 326 325 322 324 323 322 323 322 323 324 324 325 324 322 317 315 315 308 311 326 328 326 328 327 327 329 323 318 321 320 314 318 325 322 310 308 311 310 309 312 310 312 326 337 340 343 351 355 355 355 354 353 356 358 359 363 364 359 357
318 321 320 322 322 323 326 326 326 324 324 325 321 318 320 322 324 323 325 325 324 327 324 316 318 318 313 314 319 324 324 322 323 321 319 320 321 323 325 326 326 325 325 322 319 320 314 311 324 328 324 327 328 326 328 327 324 320 314 316 323 325 323 315 309 310 310 309 311 310 310 319 326 334 346 353 359 361 358 356 357 360 359 361 365 363 359 359
320 322 320 322 320 320 325 326 325 324 323 324 322 323 324 323 325 325 325 325 323 327 324 315 318 321 317 313 316 324 324 318 320 320 317 318 318 322 326 325 326 326 326 324 321 324 320 311 318 329 326 326 330 326 323 325 328 323 319 324 323 313 312 313 309 309 309 309 311 310 311 317 321 329 342 352 359 363 362 362 361 360 359 363 367 364 360 358
320 321 321 322 318 319 326 326 324 323 322 321 321 323 323 323 325 325 325 324 322 324 323 319 321 323 321 319 319 325 323 318 320 320 316 317 318 322 327 325 326 326 326 327 324 325 324 313 311 325 329 325 327 323 315 318 325 326 324 326 324 315 312 312 311 312 310 309 311 309 311 320 327 333 341 350 359 362 363 365 362 360 361 365 366 364 360 359
321 321 321 321 318 322 328 326 323 322 322 321 321 322 322 322 324 324 325 325 323 322 322 322 324 324 324 324 324 325 324 322 323 320 318 320 319 320 325 326 325 327 326 326 326 324 325 317 309 320 328 322 320 321 319 319 321 321 318 317 318 318 317 315 314 313 310 309 311 310 314 327 343 348 348 353 360 362 362 364 363 360 361 364 365 362 361 359
320 320 323 322 322 325 327 323 320 321 321 321 321 322 322 323 323 324 325 324 323 323 323 323 324 324 323 325 325 325 326 324 323 322 321 322 320 319 324 326 325 327 325 325 326 323 323 319 311 313 317 314 318 325 328 326 325 323 319 317 318 317 314 312 311 312 311 310 310 309 316 334 353 356 353 358 362 363 361 362 362 360 361 364 364 362 360 358
322 322 324 326 327 327 325 320 319 321 320 321 322 321 322 324 323 323 324 323 322 322 323 323 324 325 325 325 326 327 326 323 323 323 322 323 323 322 325 327 325 326 325 324 326 326 325 322 314 310 314 319 325 329 329 327 328 328 324 325 325 321 315 308 307 311 310 310 312 308 314 336 358 359 357 361 362 361 360 361 360 360 362 364 362 360 358 355
323 324 325 328 329 327 322 318 318 320 320 321 321 321 323 324 323 323 323 323 322 322 322 323 323 324 325 326 327 328 326 323 323 324 324 325 326 325 326 327 325 325 326 324 325 326 326 321 313 310 317 323 326 328 330 330 328 326 324 327 326 323 321 316 315 316 309 309 312 307 314 338 358 360 361 360 360 361 359 360 359 358 362 362 360 359 356 355
322 323 323 327 329 326 322 319 318 319 320 320 321 321 322 323 322 324 323 322 323 322 321 322 323 323 324 325 327 327 325 321 321 325 326 325 326 327 326 325 326 326 324 326 329 325 321 319 314 310 311 314 317 319 321 324 325 324 324 327 327 325 326 323 320 319 311 310 310 307 319 342 357 360 362 357 358 359 356 356 358 359 361 361 359 358 355 355
321 322 321 325 328 326 323 320 318 320 320 320 321 321 322 322 322 323 324 323 323 322 322 323 323 323 324 325 326 327 327 322 321 325 326 326 327 327 326 327 327 324 326 341 346 328 321 322 318 310 308 310 311 311 313 317 321 324 326 326 327 326 324 320 315 312 311 312 311 313 328 348 358 360 360 356 358 357 355 356 357 358 360 359 358 356 354 356
322 323 321 323 327 326 324 322 320 320 321 321 321 322 322 322 323 323 323 323 322 323 323 323 324 324 324 326 326 326 327 326 324 327 326 326 327 326 328 329 324 329 345 354 346 329 325 327 322 317 312 312 312 316 322 324 319 319 322 325 326 327 327 321 313 310 312 311 314 326 341 347 351 359 359 356 357 356 355 357 357 358 359 358 358 355 354 355
322 325 323 324 327 327 324 323 321 321 323 323 323 322 321 321 323 324 322 322 323 323 323 323 324 324 324 326 326 324 326 327 327 327 326 328 328 327 331 327 325 345 359 345 330 330 326 321 322 323 319 319 322 324 328 328 321 319 321 323 326 327 327 320 312 314 316 314 318 340 352 343 347 362 361 356 358 357 356 358 357 358 358 358 357 355 354 353
321 323 324 324 327 328 325 322 321 321 323 325 326 324 322 322 324 324 322 322 322 322 323 323 324 324 325 327 326 324 325 325 325 327 327 328 328 327 330 327 328 345 349 329 325 333 326 318 323 324 321 324 328 326 328 328 325 325 324 323 325 326 326 322 319 323 327 324 328 347 349 345 353 361 358 357 358 356 355 357 356 357 358 357 355 354 354 352
320 320 322 323 324 326 324 322 321 321 322 326 327 326 324 323 323 323 323 323 321 321 322 322 323 324 325 327 326 325 325 321 321 326 329 329 329 329 329 328 328 334 334 327 329 332 325 321 327 325 320 323 326 327 328 327 323 324 325 325 327 328 328 328 330 339 340 335 344 353 347 349 355 357 359 358 355 354 355 356 356 356 356 355 354 354 353 351
321 320 323 324 326 328 326 321 320 320 321 325 327 327 324 323 323 323 323 324 322 322 322 322 324 324 325 326 326 327 327 325 324 328 330 329 329 329 330 329 329 329 329 329 330 331 324 321 328 328 318 317 325 328 327 327 324 322 323 327 329 329 331 330 333 341 341 336 344 351 347 349 353 355 359 357 354 356 356 356 358 356 354 354 353 352 351 351
321 322 323 324 326 330 330 325 320 319 320 323 325 326 325 324 324 323 324 324 324 323 322 322 324 324 325 326 326 326 327 328 328 329 329 330 330 330 331 332 332 332 330 330 329 330 327 323 327 326 313 312 322 324 324 327 324 319 319 325 327 327 328 329 333 339 338 336 341 341 340 349 357 356 358 358 355 356 356 357 357 355 352 352 352 352 351 350
320 320 322 323 325 329 331 329 323 319 321 322 324 325 325 325 325 324 324 325 324 324 323 323 324 324 325 326 325 327 327 327 328 328 329 331 331 330 331 331 333 332 331 332 330 329 330 325 322 320 312 312 322 325 324 323 318 317 324 329 329 329 331 336 341 341 340 340 338 334 337 352 361 359 359 360 357 357 357 356 354 353 352 351 351 352 350 348
Wind_Speed
17 17 17 17 17 18 18 18 18 18 17 17 18 18 18 18 18 17 18 18 19 19 20 21 21 21 22 23 25 26 29 25 16 10 8 5 5 5 3 3 0 4 6 7 10 8 7 8 8 7 8 8 9 7 7 5 2 6 6 7 7 8 8 9 9 7 7 8 7 7 9 10 10 9 9 10 11 11 11 10 9 9 10 11 13 17 16 14
18 18 18 18 18 18 18 18 18 18 18 18 18 18 18 18 18 18 18 18 19 19 19 20 21 21 22 23 24 27 29 23 15 12 7 3 1 1 1 4 1 4 7 10 8 6 6 3 2 4 7 8 9 6 4 2 6 7 6 7 7 8 10 10 11 9 8 8 9 10 11 11 11 9 7 8 11 12 11 11 11 12 12 12 14 16 15 15
18 18 18 18 18 18 18 18 18 18 19 19 18 18 18 18 18 18 18 18 18 19 19 20 21 21 22 22 24 26 23 16 12 6 2 2 1 1 2 5 2 3 7 11 6 8 7 7 4 4 7 7 10 6 6 5 6 7 6 7 7 9 11 11 10 9 7 8 11 11 10 10 11 10 7 8 10 10 11 10 10 12 12 12 13 14 15 15
18 18 19 19 19 18 18 18 18 19 19 19 19 19 19 19 19 18 18 18 18 19 19 20 21 21 21 22 24 23 15 12 5 3 5 3 3 3 4 6 3 1 5 11 13 11 6 8 4 3 6 4 9 7 8 8 6 7 7 7 9 10 10 10 10 10 9 9 10 9 10 10 9 10 8 9 9 7 9 10 11 12 13 13 12 12 13 13
18 18 19 20 20 20 19 19 19 19 19 19 19 19 19 19 19 18 18 18 17 18 18 20 20 21 21 20 23 18 10 7 3 6 4 2 3 4 5 6 4 1 6 12 14 10 7 10 4 2 8 3 6 5 6 7 7 7 9 10 10 10 9 11 11 10 8 6 8 9 10 8 7 8 9 10 8 7 8 10 12 12 12 12 11 11 11 10
18 19 20 20 20 20 20 20 20 20 20 20 20 20 20 20 19 19 18 17 16 17 17 19 20 22 21 20 21 12 7 4 6 6 4 4 2 4 5 4 2 1 8 13 14 11 8 10 5 3 4 7 6 3 10 8 8 7 8 11 10 11 11 10 9 6 3 5 10 8 7 7 8 10 11 13 11 10 11 11 12 11 12 12 12 11 10 9
19 20 20 20 20 21 21 21 21 21 21 20 20 20 20 19 19 18 18 17 16 16 16 17 19 21 22 21 15 7 10 3 7 5 6 5 2 3 4 3 1 1 7 12 13 11 8 10 5 5 4 5 7 6 10 7 5 9 8 10 11 11 11 9 7 6 7 10 8 3 5 7 9 10 12 15 15 13 13 11 11 11 11 11 11 10 10 9
20 21 21 21 21 21 22 22 22 22 22 22 21 20 20 19 19 18 18 17 15 15 15 16 17 19 22 20 11 7 8 1 8 4 5 6 4 4 3 3 4 6 9 13 12 11 10 10 9 4 4 4 5 4 10 2 4 10 8 9 9 9 10 9 8 7 8 8 3 2 5 7 8 10 12 15 15 14 13 11 10 10 10 8 8 8 9 9
19 21 22 22 22 22 23 23 23 23 23 23 22 21 20 19 18 17 17 16 15 15 14 15 15 16 18 13 9 9 2 8 6 2 4 5 4 4 3 5 7 8 11 13 11 11 10 9 9 10 8 1 4 3 11 3 4 9 8 9 9 9 9 8 9 7 7 5 3 5 4 5 8 8 12 16 15 15 13 12 11 10 9 7 7 7 7 8
19 20 21 21 22 23 24 24 24 24 24 24 23 22 20 19 18 18 16 15 14 14 13 13 13 14 14 10 10 9 4 9 3 2 4 5 6 4 5 7 8 9 11 12 10 9 8 9 9 9 11 8 4 4 9 4 5 9 9 10 8 8 7 6 8 8 8 6 2 5 2 4 4 3 8 15 16 16 13 12 12 10 9 8 7 6 6 7
18 19 20 21 22 23 24 25 25 26 26 25 24 22 20 19 18 18 16 15 13 13 12 12 12 13 12 9 10 7 5 6 3 4 3 6 7 6 7 8 9 10 11 11 11 9 8 11 12 9 7 5 4 2 4 2 6 10 8 9 7 8 8 4 6 7 6 4 3 5 3 3 1 2 9 15 15 15 13 12 11 10 8 8 7 7 5 5
18 19 20 21 22 23 24 25 25 26 27 26 24 22 21 20 19 17 15 13 12 11 10 10 11 11 11 9 11 8 1 2 4 5 5 6 7 7 7 9 9 11 11 11 14 13 12 13 13 11 9 7 7 2 3 2 3 7 4 5 5 4 6 4 6 7 3 3 5 4 3 2 2 3 14 15 13 14 14 12 10 9 8 7 7 6 6 7
18 19 20 21 22 23 24 25 25 26 27 26 24 21 21 20 18 16 14 11 10 10 9 9 9 9 9 7 11 9 3 4 4 4 5 4 7 8 9 10 10 11 11 12 13 14 14 13 14 13 11 10 7 3 3 5 1 6 1 3 2 2 1 4 6 7 5 7 7 3 3 5 4 6 14 13 12 14 13 11 9 8 7 7 7 6 6 8
19 20 21 22 23 24 24 25 26 27 26 25 22 21 22 19 16 14 12 10 9 8 7 8 8 8 7 8 15 12 5 5 5 7 7 6 7 9 10 10 11 12 11 13 13 13 14 13 15 12 10 11 6 3 5 5 1 5 9 7 4 4 2 5 9 8 7 9 11 6 1 5 6 8 13 12 11 12 11 11 9 8 8 7 7 7 7 7
19 21 22 23 24 25 25 26 27 27 26 24 21 21 22 18 14 13 10 8 7 6 6 8 7 6 6 11 15 9 9 10 12 12 11 10 10 10 11 11 12 13 12 13 13 13 13 13 13 10 11 10 5 6 4 2 4 1 8 2 7 3 2 4 10 10 7 9 12 8 1 4 8 9 13 11 9 10 10 10 10 9 9 8 8 8 8 8
20 22 23 24 25 25 26 27 27 28 26 23 20 21 21 17 14 12 9 7 5 4 5 6 8 9 7 7 5 3 10 14 17 19 16 14 13 11 12 13 11 12 13 13 13 13 12 12 10 9 12 9 5 7 0 3 4 3 0 5 5 3 4 4 7 9 10 10 11 10 2 3 7 10 12 12 10 9 9 10 11 9 8 8 8 8 8 8
20 22 23 24 25 26 26 27 27 28 25 22 21 21 20 17 14 10 8 6 5 5 7 8 7 9 8 7 4 6 12 16 17 18 16 14 13 13 12 12 10 10 12 13 14 12 12 10 7 8 9 7 7 7 2 2 2 3 6 6 4 7 7 4 7 10 12 11 10 10 6 0 8 12 11 11 12 10 7 7 8 9 8 9 8 8 8 8
20 22 23 24 26 26 26 27 27 27 24 21 20 22 21 18 14 10 8 6 4 5 9 10 9 5 6 9 11 10 9 13 14 13 12 12 11 13 12 11 10 11 11 11 12 12 10 8 7 8 8 7 8 7 5 5 5 5 6 7 5 10 11 6 4 9 16 13 9 10 8 2 8 12 12 12 12 10 7 5 1 5 9 10 8 9 8 8
20 22 23 25 26 26 26 26 26 27 24 21 20 22 20 15 11 8 9 8 5 5 5 5 8 6 4 5 12 12 2 4 3 8 10 11 10 11 13 12 11 12 11 9 9 10 8 7 8 8 8 9 9 8 6 6 7 8 6 10 8 5 9 8 5 8 13 11 9 12 8 2 8 2 8 13 11 10 10 4 0 5 8 10 9 9 8 9
20 22 24 25 26 26 26 26 25 25 23 22 23 20 13 6 4 3 5 8 8 10 12 5 10 12 10 8 7 7 2 2 2 8 11 12 12 12 12 11 11 11 11 10 10 9 9 9 9 9 9 11 13 12 9 6 11 11 10 12 9 7 4 8 12 12 8 5 6 8 6 7 9 1 9 11 10 12 13 5 4 5 9 9 10 10 9 9
21 22 23 25 26 27 26 26 24 22 20 21 22 14 6 8 6 5 6 10 12 14 17 14 13 13 12 13 8 1 2 7 10 13 14 14 15 13 9 10 12 10 11 13 12 10 10 10 11 12 13 14 16 15 12 10 11 12 11 9 7 7 7 2 8 7 3 2 1 10 8 4 9 9 12 12 11 13 15 10 10 10 11 9 10 12 10 9
21 21 24 25 26 27 26 26 22 17 15 15 15 9 6 11 8 9 10 10 13 15 18 17 17 15 12 15 14 5 3 7 10 13 14 13 14 12 9 11 12 11 12 13 11 10 11 11 14 16 16 16 14 13 15 16 13 10 9 8 7 6 7 8 4 2 1 4 1 11 11 7 12 14 15 14 13 11 15 15 12 8 9 8 11 12 11 11
20 22 24 25 27 27 26 25 19 14 11 10 12 8 9 10 10 13 11 8 12 16 16 15 16 15 13 14 15 12 10 9 10 10 12 12 11 11 11 12 13 13 14 14 12 11 10 11 15 15 15 15 13 13 16 16 12 9 8 8 8 7 8 7 3 4 6 2 3 4 5 5 11 14 13 14 14 11 13 13 10 7 9 9 11 12 11 12
20 22 23 25 28 27 26 25 15 10 10 11 11 7 9 10 11 14 11 7 10 12 14 14 13 12 13 12 11 13 13 10 10 11 11 13 10 10 12 13 14 14 14 17 18 16 14 14 15 14 13 16 17 15 14 12 10 10 11 10 9 10 11 8 8 11 7 4 7 2 1 2 8 11 10 12 13 9 10 9 8 10 11 12 12 12 12 9
20 22 23 25 27 28 27 20 10 9 13 12 7 6 9 11 11 13 10 6 7 8 11 12 8 8 12 11 6 8 11 11 11 12 12 14 13 10 10 10 11 12 15 19 19 16 16 17 17 15 16 20 20 15 13 12 9 9 12 12 12 13 12 11 13 12 8 1 4 3 4 2 3 6 7 5 11 7 5 9 11 12 12 13 13 14 11 11
20 21 22 23 26 30 23 10 9 17 16 9 7 9 11 11 11 13 8 5 6 4 8 8 6 5 8 9 7 6 9 11 12 15 16 15 15 11 9 8 8 12 15 15 13 10 12 17 18 18 20 21 18 12 11 11 8 7 10 12 13 14 14 14 14 10 8 5 4 6 5 3 4 5 9 5 15 9 9 13 14 12 12 14 13 10 8 18
20 20 22 22 23 27 18 8 17 21 11 7 11 12 12 11 12 12 5 5 6 5 8 5 4 6 6 6 9 9 5 4 10 17 17 12 12 11 11 9 8 11 12 9 8 8 11 18 19 18 18 17 14 11 10 11 9 7 10 14 13 13 16 17 13 8 9 7 5 7 1 2 2 4 8 5 15 13 13 16 15 12 12 13 11 6 16 16
19 20 22 21 20 22 15 13 19 16 9 13 15 14 13 13 13 8 5 5 2 5 5 4 3 4 5 5 10 12 6 4 6 15 17 13 11 10 11 13 12 11 12 11 9 9 12 16 18 17 15 13 12 12 11 13 12 10 13 13 12 15 17 16 12 8 9 10 6 5 5 2 3 5 9 10 14 14 15 16 14 12 12 12 9 12 19 14
19 20 20 21 20 15 13 15 15 13 14 16 15 15 14 14 11 5 5 5 2 4 2 4 4 5 7 6 10 14 10 7 5 9 17 15 12 10 10 12 15 14 13 15 13 12 12 13 14 15 13 11 11 10 11 14 13 14 16 11 10 15 16 14 10 8 9 9 9 5 5 6 3 5 8 9 11 11 13 13 12 14 13 11 10 15 17 13
19 19 19 21 18 11 14 16 14 12 15 15 16 18 16 11 6 5 6 3 2 4 5 4 4 7 10 9 10 12 12 10 4 6 13 12 13 12 10 10 12 13 13 14 15 15 14 14 12 10 10 11 11 10 12 16 16 16 17 13 12 14 12 11 8 7 9 8 10 10 9 9 2 2 2 4 8 9 9 10 11 14 12 9 11 14 15 11
18 18 18 19 16 13 16 13 8 12 15 16 18 17 13 6 4 7 5 1 1 4 7 6 6 8 11 11 9 11 12 11 6 7 9 9 10 11 9 9 8 8 10 11 11 14 15 16 13 8 7 11 12 9 10 14 15 14 13 12 11 9 8 8 7 8 8 7 10 11 10 10 3 1 3 3 6 8 8 8 11 14 12 10 12 13 14 12
18 18 19 19 19 17 17 15 14 19 17 17 17 11 7 5 6 7 6 3 2 4 4 5 8 8 11 12 9 11 11 11 9 9 9 9 8 9 10 9 6 7 8 8 9 12 13 13 14 12 10 11 11 10 9 11 12 11 10 9 7 6 6 7 7 7 7 7 10 9 10 9 1 3 3 2 6 5 4 6 9 12 12 13 13 11 13 13
18 19 21 19 20 22 22 22 21 19 16 16 12 6 5 6 7 8 9 6 1 4 0 2 6 7 10 10 9 11 12 11 11 11 11 10 9 10 13 13 12 9 7 8 9 9 9 11 15 15 11 12 13 10 8 9 10 10 8 7 6 6 7 7 7 7 7 8 9 11 11 7 2 3 4 5 3 2 1 2 4 9 12 14 14 11 14 14
19 20 23 21 22 25 24 21 19 15 15 13 7 5 7 8 8 9 10 7 3 5 2 3 2 5 8 8 8 10 10 10 11 11 10 11 9 9 11 14 16 13 8 8 8 7 9 8 12 15 11 12 15 12 9 9 10 10 9 8 8 8 7 8 7 7 8 8 8 12 10 2 3 2 4 5 3 0 1 3 5 9 13 14 14 14 15 14
20 20 21 20 21 23 20 17 16 13 11 8 5 6 8 8 8 9 8 6 0 4 5 4 4 7 7 7 9 10 9 8 11 12 9 9 9 8 9 11 15 14 10 7 6 7 9 8 8 12 12 12 15 16 13 10 9 9 9 10 9 8 8 8 9 10 11 9 7 8 4 4 6 9 10 8 5 5 4 5 7 11 14 14 14 15 15 13
20 18 17 17 18 17 15 13 12 12 9 6 6 7 9 9 9 7 5 6 5 3 1 4 6 8 7 7 8 10 11 9 10 10 9 10 11 10 10 9 13 15 12 8 6 6 7 8 6 6 10 10 9 7 11 9 7 6 8 10 9 10 10 8 10 11 12 10 6 7 3 5 7 6 6 8 9 8 7 8 10 13 15 14 13 14 15 13
18 16 16 18 18 16 14 12 11 11 8 6 7 9 9 9 12 11 5 5 6 5 6 4 6 7 7 7 7 8 10 9 9 8 7 9 10 10 11 10 11 16 14 11 7 5 6 7 7 6 10 12 6 4 7 10 9 7 6 8 9 12 11 7 7 7 9 9 6 7 5 5 7 3 3 7 9 9 7 9 12 13 13 13 14 14 15 14
17 16 16 19 21 18 13 14 12 10 7 6 10 12 11 10 14 14 6 5 6 6 7 8 5 6 8 8 8 10 9 7 8 7 6 7 7 10 12 10 9 13 14 12 8 5 4 6 10 8 5 8 10 7 9 11 12 11 8 8 8 9 8 6 6 6 7 8 5 7 7 2 6 4 6 7 8 9 8 9 12 13 12 13 15 16 15 14
16 12 10 15 20 17 14 15 12 8 6 8 10 9 10 12 15 16 10 5 6 7 7 9 7 6 9 8 5 10 11 8 7 7 6 5 5 8 11 8 9 12 11 10 8 5 5 5 8 3 3 5 7 7 6 8 11 12 10 9 8 8 7 6 6 5 5 7 6 7 7 2 5 3 8 8 7 9 8 8 9 11 12 13 14 15 13 13
12 7 7 11 16 19 17 13 10 7 7 10 10 8 10 12 13 14 11 5 5 7 8 10 8 5 6 9 8 6 10 9 8 7 6 6 5 5 8 7 8 10 9 7 7 6 5 5 7 5 5 5 5 5 6 7 7 8 8 8 8 7 7 7 7 6 6 7 5 6 4 4 3 2 6 10 9 10 10 9 8 9 12 13 15 14 12 12
8 6 6 7 17 21 16 10 8 8 8 10 11 11 12 11 11 12 10 7 6 8 9 11 11 8 7 9 8 4 8 7 9 7 6 7 7 5 6 8 7 7 8 8 8 7 6 5 7 9 6 6 7 8 11 12 10 9 8 9 8 8 7 8 8 7 8 7 6 7 3 4 1 4 5 10 9 11 11 10 9 9 11 13 14 13 13 13
7 7 6 12 19 18 13 8 7 8 8 10 11 12 12 11 11 11 6 5 6 8 9 9 10 11 9 9 9 4 5 7 7 7 5 6 9 8 7 11 9 8 7 6 8 7 5 5 7 9 8 7 7 9 11 10 8 9 9 7 8 7 7 8 7 7 9 8 8 8 3 3 1 3 6 8 8 11 10 10 10 10 12 13 13 14 14 14
7 7 6 13 19 15 10 8 9 9 9 11 13 15 14 11 10 9 7 6 7 8 9 8 9 10 9 10 10 9 5 5 5 8 6 6 9 6 6 7 7 7 6 4 6 8 6 5 7 8 8 10 12 15 12 3 3 6 9 9 10 9 8 7 6 7 9 9 8 7 2 3 2 2 6 8 9 11 9 9 11 10 11 12 13 15 15 13
6 8 7 13 19 15 10 8 9 9 10 13 15 15 15 13 12 10 10 10 8 7 9 8 9 10 9 11 10 8 6 2 5 10 7 5 4 9 10 4 3 6 7 2 1 4 6 5 6 6 7 7 8 10 9 4 5 6 7 8 10 13 14 12 8 7 8 10 11 7 1 4 2 2 6 9 9 9 8 9 11 11 11 12 12 13 12 11
5 7 7 11 16 13 9 9 9 9 11 15 16 15 16 14 10 10 11 11 10 9 9 9 10 11 10 10 10 10 9 6 5 8 6 6 2 10 10 6 5 8 5 6 8 4 3 4 5 5 6 7 6 5 5 4 4 6 7 7 8 12 14 12 9 8 7 8 9 3 5 6 4 5 8 9 9 9 9 9 11 11 11 12 12 12 11 10
4 6 6 7 10 10 8 10 12 11 11 12 12 14 17 14 10 11 13 11 10 11 11 9 10 12 12 11 9 9 10 9 7 5 6 7 2 5 7 5 6 8 4 12 10 5 5 5 5 6 8 8 7 6 6 8 9 10 9 7 9 11 13 10 8 7 7 6 4 6 12 11 9 10 9 9 10 10 10 11 11 10 11 12 12 11 12 11
5 6 7 6 7 8 9 11 13 12 11 11 9 11 16 15 11 11 12 10 11 11 10 10 11 11 11 9 9 9 10 11 11 7 7 8 6 2 4 4 7 5 4 8 9 4 5 8 8 10 11 11 11 10 11 12 11 10 14 15 14 11 10 10 8 8 9 5 1 8 15 13 10 11 10 10 11 10 10 11 11 10 11 12 12 12 14 14
6 7 8 7 6 8 9 11 13 14 16 15 10 10 15 16 14 11 12 11 12 11 9 10 13 13 11 9 9 9 10 12 13 9 6 8 8 4 3 5 7 5 4 6 8 4 6 8 10 13 13 12 13 13 15 15 11 8 11 14 15 12 9 8 9 11 7 4 6 7 13 13 11 12 12 12 12 11 10 10 11 11 12 13 13 13 15 15
7 7 8 10 9 8 10 13 16 17 18 16 11 11 14 16 16 14 10 9 11 12 11 11 13 14 13 12 11 10 10 10 8 6 5 7 8 5 4 7 8 7 5 8 7 4 5 7 10 14 14 14 15 15 16 15 11 8 10 12 11 8 7 10 14 15 12 11 10 10 12 11 9 11 12 13 12 11 10 11 11 12 12 13 13 13 14 14
7 6 6 8 9 9 10 13 15 15 15 14 12 11 12 15 17 15 11 10 10 11 13 14 14 14 15 16 13 11 11 9 5 5 6 6 7 7 5 5 5 5 7 9 6 6 5 6 9 11 11 12 16 16 12 8 8 12 13 10 6 4 5 4 7 11 11 7 6 9 10 8 7 9 11 13 13 12 11 12 12 11 12 13 13 13 14 13
13 13 11 7 8 11 10 10 13 12 11 12 11 10 11 13 15 14 12 12 11 11 13 14 15 13 13 15 14 14 15 9 5 7 9 7 8 7 2 3 8 8 7 7 6 8 6 6 8 9 8 8 13 16 9 3 7 13 14 9 7 8 7 1 5 9 8 4 3 5 5 5 6 9 12 13 13 14 14 13 11 10 11 13 13 13 13 13
15 15 12 9 7 9 9 8 11 12 10 11 12 13 12 11 12 13 10 10 13 14 12 13 15 13 10 14 17 15 14 10 6 8 8 6 7 6 5 7 12 11 6 4 3 4 6 6 7 7 7 7 8 10 11 8 7 8 8 9 8 9 7 7 12 11 6 2 1 1 1 4 8 10 12 13 13 13 13 12 11 11 12 13 13 12 13 13
Wind_Direction
1 1 1 359 357 356 355 353 352 351 349 347 345 345 345 343 343 343 344 344 347 350 350 351 349 347 345 339 338 338 333 333 322 282 250 281 329 338 341 35 64 158 143 186 211 219 217 225 248 270 280 280 266 272 291 281 44 53 54 54 55 55 56 63 63 76 98 101 109 120 104 96 101 104 112 120 112 104 108 105 104 107 102 108 123 135 142 145
2 2 0 359 358 356 354 352 351 350 348 347 345 345 343 341 340 340 340 340 343 346 348 349 347 345 344 339 337 337 334 328 299 265 252 276 322 323 4 61 94 153 169 196 203 241 263 271 292 310 300 296 286 295 337 359 63 65 69 61 58 58 59 67 74 82 91 101 107 103 97 103 108 108 121 119 108 107 106 107 110 110 112 118 128 139 143 143
2 1 359 359 357 356 354 352 351 349 347 346 345 344 341 339 338 337 337 337 340 342 345 345 344 344 342 339 333 336 335 314 283 264 144 138 150 115 89 76 104 170 206 222 263 304 316 321 319 325 296 293 296 319 35 43 55 60 71 74 77 76 75 76 83 94 97 97 94 96 99 102 108 113 122 114 108 114 114 119 125 122 126 130 137 145 146 146
1 0 359 358 356 355 354 353 352 348 347 345 344 343 339 338 336 336 336 335 337 338 341 342 343 341 340 338 329 335 329 290 291 66 96 133 152 133 109 85 103 179 234 251 283 298 298 282 273 336 290 283 297 314 48 52 52 60 66 79 88 85 85 85 85 87 79 83 95 108 104 101 118 118 117 121 113 109 118 127 131 131 134 137 141 143 144 138
0 360 359 357 355 354 354 352 351 348 347 344 342 341 337 336 334 335 334 333 335 336 339 338 340 338 338 336 324 327 313 287 67 92 94 132 159 135 119 102 101 194 245 262 282 279 263 260 234 340 299 291 282 300 54 71 83 73 66 72 81 84 84 81 81 84 92 119 112 104 98 106 125 102 96 106 98 96 109 119 127 134 137 139 139 136 140 132
360 359 358 357 355 354 353 351 350 348 346 343 341 338 335 334 333 333 331 331 332 332 336 336 339 337 337 335 322 312 281 300 99 128 111 103 173 146 127 122 91 273 253 272 281 269 258 262 229 169 294 309 281 43 44 34 72 75 70 75 76 81 83 83 89 87 94 104 88 90 109 117 103 80 82 89 88 98 108 120 130 133 136 140 140 139 143 143
358 358 358 356 355 353 352 350 348 347 344 342 340 337 334 332 331 330 328 328 329 330 333 335 337 336 337 337 324 271 252 288 101 135 130 113 143 150 142 144 169 269 262 275 280 284 297 296 293 153 172 304 298 74 64 354 54 86 82 80 76 81 84 78 78 59 36 62 75 119 117 97 94 88 86 92 95 100 104 117 126 128 136 141 143 149 149 153
355 356 356 356 355 353 352 349 347 345 343 341 338 335 332 330 328 326 325 325 326 326 330 334 338 338 337 336 324 267 263 85 105 134 136 132 140 150 166 171 219 253 270 280 290 309 316 320 349 351 198 178 283 66 98 331 35 86 86 87 89 88 88 82 82 75 64 68 23 351 68 67 91 102 100 103 106 108 112 117 123 127 136 145 147 155 153 157
354 354 354 354 354 353 352 348 346 343 341 339 336 334 330 327 325 323 323 322 322 323 327 331 335 339 333 326 303 290 333 93 110 142 120 139 149 147 180 204 222 238 270 285 294 305 313 337 353 334 323 312 292 46 104 89 49 92 96 98 101 94 101 109 105 103 97 84 357 32 56 67 102 117 108 113 118 119 129 135 137 135 139 153 150 159 161 158
354 353 352 352 353 352 351 348 346 342 340 337 334 332 328 326 323 321 320 319 320 318 323 328 332 340 328 305 284 285 102 103 103 85 107 149 164 176 200 228 238 245 276 290 294 304 323 337 332 325 322 308 299 71 104 118 103 104 99 97 98 100 111 118 108 108 100 86 58 84 51 48 111 180 112 118 127 128 138 142 142 144 149 155 152 171 169 155
354 353 351 351 351 350 350 348 345 341 339 336 333 330 327 326 322 320 317 315 316 313 319 325 329 335 320 294 280 282 105 115 132 126 159 169 185 205 214 238 257 267 283 291 291 309 334 330 325 315 310 320 318 22 78 150 119 102 108 108 111 127 122 122 119 113 110 114 111 101 73 30 1 227 124 127 133 138 143 142 148 149 146 148 159 175 160 160
355 354 353 351 351 350 348 346 343 340 337 334 332 329 327 326 323 320 315 312 310 308 315 317 325 334 317 284 263 263 162 169 162 149 176 187 218 228 236 248 260 275 288 296 298 319 333 327 320 306 313 334 300 284 75 261 126 105 152 124 107 139 123 149 144 114 133 140 107 105 132 165 263 127 124 131 144 148 141 143 155 140 134 153 169 174 164 176
357 356 355 353 352 350 348 345 342 338 334 332 330 330 328 326 324 321 316 312 304 304 309 308 320 320 303 277 263 263 232 228 205 179 198 213 243 246 248 257 262 271 282 290 298 313 315 312 310 307 309 303 304 36 98 259 189 108 88 43 20 302 81 167 142 122 156 139 125 159 164 153 180 141 130 136 155 152 137 145 151 131 149 175 174 178 177 179
357 357 356 354 352 350 348 345 342 337 333 329 328 328 327 325 325 322 317 312 302 298 293 296 307 301 281 264 271 266 221 257 243 217 237 232 244 255 248 253 262 265 271 277 287 296 297 302 299 296 286 274 312 0 211 237 286 97 57 17 280 270 296 189 154 158 170 147 159 194 238 137 157 153 137 141 159 151 136 146 148 148 173 184 179 180 175 178
357 356 355 354 353 350 348 344 341 337 332 328 327 326 325 322 323 323 318 311 303 292 280 283 274 266 273 261 269 254 199 241 251 239 252 244 242 256 250 247 252 259 266 271 280 284 287 294 289 285 283 270 261 268 243 36 322 104 81 338 258 257 288 197 156 170 180 166 182 199 272 133 155 154 138 143 161 152 145 151 158 166 179 187 186 185 176 179
356 355 354 354 352 349 346 344 341 337 331 326 324 323 321 316 317 322 318 308 298 271 261 267 224 216 267 270 262 241 212 237 249 243 245 241 243 251 258 259 247 249 257 261 269 275 276 278 280 283 289 288 251 246 171 66 297 301 137 228 241 255 251 203 164 177 182 178 190 203 233 112 152 154 142 150 163 163 161 161 166 167 178 196 192 192 184 172
354 354 353 353 350 347 345 342 340 336 329 324 322 321 319 312 307 313 319 310 293 259 248 273 253 217 255 274 258 249 235 239 245 242 235 226 238 248 257 267 261 255 252 252 255 260 266 266 273 272 262 267 264 251 209 200 279 303 279 265 218 223 240 208 182 188 186 185 187 199 233 131 142 150 147 155 168 176 161 143 161 171 185 203 203 203 185 167
352 351 351 350 348 345 342 341 340 336 328 322 320 319 315 305 294 295 305 299 284 257 246 265 275 245 243 244 242 245 247 248 235 223 225 216 224 244 251 258 268 272 262 252 244 243 254 253 258 269 257 244 248 249 223 207 235 237 255 282 233 202 218 217 202 189 185 195 186 181 229 253 134 152 157 158 174 171 122 85 111 214 201 192 209 216 185 177
349 349 348 348 346 342 340 339 339 336 327 320 323 321 311 297 281 269 260 251 228 240 256 214 203 233 296 259 234 233 271 358 220 199 223 223 220 236 244 249 257 263 265 258 238 232 241 248 247 252 259 257 249 253 243 194 225 255 254 259 260 232 217 186 178 196 182 197 202 183 203 89 79 125 173 163 177 153 115 107 354 281 233 191 207 220 186 189
347 347 345 345 345 339 337 336 336 335 325 320 329 325 313 306 290 242 238 247 242 255 280 267 205 233 280 287 248 217 193 19 216 221 231 229 233 238 235 239 246 246 251 256 251 239 233 244 251 245 247 258 260 263 262 209 202 228 244 251 268 289 270 154 175 204 184 196 220 175 152 101 90 244 215 178 176 145 124 154 191 238 245 204 205 214 191 197
343 344 343 343 342 336 334 333 333 331 320 319 324 319 344 13 351 343 333 291 269 259 266 267 246 245 261 267 271 304 286 256 226 225 231 227 228 235 226 223 237 239 236 243 254 256 245 241 244 249 251 249 260 273 276 255 224 230 251 269 278 272 294 269 196 200 180 252 288 113 120 160 146 179 217 192 183 159 142 176 200 211 232 203 198 210 193 191
340 341 341 341 340 335 332 330 329 325 318 315 306 296 8 16 350 333 330 299 284 273 265 262 254 252 252 259 269 284 288 261 237 221 221 221 213 216 222 220 228 240 239 237 244 249 248 251 246 245 246 241 247 267 277 274 265 266 269 272 274 266 285 281 258 13 294 272 358 118 136 183 160 176 213 196 186 170 154 181 195 207 241 207 192 205 192 182
337 337 338 339 338 332 328 327 322 309 305 300 294 314 1 356 341 331 315 287 287 276 260 250 244 245 239 242 252 247 240 247 248 224 203 209 209 208 225 232 228 235 241 237 238 241 238 246 249 249 257 259 251 245 260 274 275 275 277 273 273 272 279 276 278 283 248 188 56 100 137 173 165 179 207 190 179 166 156 176 181 193 250 242 208 202 192 181
334 335 336 338 336 330 328 324 309 287 289 279 285 337 1 337 338 335 318 284 279 270 252 240 233 237 234 232 234 231 233 233 240 238 206 200 212 212 223 239 236 231 236 239 240 245 248 247 247 248 252 254 251 241 244 259 265 265 265 268 273 276 280 286 291 282 267 100 81 61 286 222 182 184 202 189 168 143 139 167 186 192 225 247 225 205 195 163
332 331 332 338 336 330 326 318 306 320 315 293 300 5 350 335 343 337 321 281 263 251 236 227 216 230 229 218 213 226 236 231 230 243 227 203 206 218 224 233 240 237 231 234 241 245 249 253 253 254 250 244 242 239 239 245 250 258 262 268 275 281 282 277 280 284 284 307 114 190 265 285 172 192 234 177 129 112 149 189 209 200 206 231 222 204 184 107
330 328 331 336 336 334 329 317 329 329 313 308 360 1 336 339 342 328 311 268 265 201 182 188 175 197 214 199 191 215 244 239 219 230 240 217 201 221 234 219 224 244 242 233 236 246 248 251 252 252 258 264 264 261 264 274 275 261 266 274 277 282 287 282 280 281 284 285 171 197 254 332 44 342 321 74 116 147 202 206 216 206 200 216 216 199 121 85
327 325 328 331 337 340 335 319 327 322 310 349 359 335 329 338 329 319 296 257 254 171 147 157 164 173 192 188 181 194 241 259 201 210 231 217 191 216 238 230 218 226 246 253 238 233 238 247 249 245 251 265 271 264 259 265 268 269 276 279 281 279 275 278 279 269 284 296 204 188 165 62 89 311 290 142 135 168 197 205 214 209 201 208 209 135 91 99
325 324 325 325 332 335 321 310 318 312 317 347 339 324 328 324 312 300 274 279 235 160 152 145 129 160 189 181 185 204 239 289 205 194 206 199 182 208 228 238 245 226 222 240 252 244 234 238 245 245 246 248 249 251 251 252 254 255 254 255 271 279 278 286 296 288 291 297 264 172 112 131 187 223 228 170 150 170 191 208 216 213 204 199 188 120 110 140
324 324 321 321 327 328 321 313 300 290 308 325 326 323 320 307 300 278 257 275 180 166 167 148 150 180 195 186 195 216 230 246 240 176 188 193 188 216 239 236 250 255 231 225 240 253 249 243 242 243 246 249 254 258 261 262 263 268 268 265 266 269 272 274 274 277 273 272 274 237 197 252 231 190 209 168 150 166 185 209 222 222 206 173 158 135 132 156
323 322 318 320 326 332 325 303 275 290 313 316 319 317 307 293 280 252 242 252 200 163 137 154 186 181 190 196 198 212 223 231 236 156 180 194 192 213 252 248 244 259 251 236 237 243 255 265 259 247 254 266 269 258 250 253 256 269 282 285 270 262 268 273 271 281 272 257 273 273 265 278 283 167 242 135 154 177 184 203 213 225 216 164 158 151 139 142
320 317 315 315 315 318 314 287 272 326 326 319 319 310 292 271 243 257 247 245 271 170 152 175 181 170 188 206 202 195 216 228 204 171 185 194 195 204 231 247 239 244 248 247 245 239 242 255 260 251 255 277 284 270 256 260 257 255 261 262 263 264 265 272 273 268 268 265 269 271 278 285 277 311 353 85 184 196 185 201 200 208 209 176 175 162 134 131
316 313 307 304 300 295 285 275 299 321 319 317 316 300 278 250 226 246 243 240 230 182 186 184 170 180 193 210 216 183 199 226 199 191 204 196 201 208 212 221 218 222 235 235 241 244 234 234 245 248 237 242 262 268 264 269 265 255 258 263 270 277 261 256 258 255 259 269 275 284 286 283 252 134 151 165 243 231 179 211 202 192 186 170 176 155 124 132
313 308 300 296 292 285 279 283 295 302 306 310 303 274 264 255 235 238 239 242 177 108 343 189 166 197 196 204 220 183 188 220 198 193 209 207 212 209 205 219 228 225 231 232 232 240 236 223 228 238 235 217 224 243 246 247 252 245 246 252 253 264 266 261 260 262 265 269 287 294 276 263 25 65 136 151 224 260 141 202 185 173 169 161 163 140 120 138
309 304 298 293 286 281 281 283 280 281 294 297 281 249 242 245 252 256 252 244 167 118 188 211 184 219 209 220 228 185 188 221 206 197 204 208 221 218 203 213 226 231 239 246 247 240 241 235 218 218 218 204 205 220 240 252 256 246 237 235 237 248 263 271 271 269 270 266 266 267 257 243 51 102 135 101 84 33 144 146 137 151 156 149 146 135 127 139
310 303 295 288 279 276 278 274 263 261 275 274 255 243 233 237 243 242 262 289 259 151 178 181 210 230 215 230 239 206 200 219 208 204 213 214 217 224 216 206 213 226 237 236 241 245 250 266 245 210 200 209 210 207 217 243 259 254 247 242 234 234 241 259 271 273 277 281 272 263 259 100 133 163 148 126 144 174 162 142 130 131 136 137 137 133 130 140
314 305 289 273 263 263 258 248 239 232 241 251 241 234 231 241 249 248 283 329 351 3 286 179 207 237 217 205 235 218 200 208 206 204 215 220 222 227 226 210 198 210 229 237 235 241 248 268 267 186 185 225 245 215 194 207 245 257 249 251 253 254 252 252 258 260 263 267 265 268 272 120 140 154 140 149 157 148 137 139 132 126 132 138 135 129 133 143
316 305 287 268 259 253 233 211 206 209 222 240 235 238 244 244 256 268 293 336 334 330 304 262 205 225 224 201 212 203 191 196 199 206 213 210 221 229 230 230 202 198 218 241 259 272 270 281 278 228 204 209 221 273 230 207 228 252 244 249 257 258 262 269 272 268 264 263 252 259 271 130 135 162 180 160 133 116 128 139 132 134 143 140 126 124 133 142
308 296 286 269 256 246 216 187 192 207 215 233 239 247 259 257 262 276 316 348 298 267 266 268 231 215 229 216 188 177 184 196 189 201 226 210 199 208 220 234 211 196 210 223 240 282 291 291 281 263 230 192 176 213 251 228 226 242 260 269 261 256 261 262 266 267 269 280 291 291 295 85 121 152 168 157 128 121 132 137 141 149 147 131 122 127 136 142
292 284 281 259 239 221 192 178 193 215 216 227 234 238 252 258 264 279 308 339 293 276 266 264 255 235 242 244 202 167 175 203 201 193 221 214 166 185 205 216 203 196 209 219 225 258 264 273 279 246 169 213 191 185 236 242 224 224 242 263 262 264 278 280 276 275 270 270 271 278 282 95 95 137 162 155 131 131 141 147 154 148 134 127 127 133 140 143
279 269 272 243 202 179 172 179 199 218 216 225 236 237 245 252 252 259 262 256 266 271 262 265 265 252 262 276 268 198 173 207 220 196 205 195 154 178 201 208 219 200 193 224 242 246 238 243 273 255 185 222 228 191 221 248 242 224 219 235 246 252 265 273 272 276 284 282 273 276 271 113 64 347 147 141 139 147 156 156 150 139 133 131 132 139 145 137
273 269 257 188 158 158 169 186 205 213 220 230 238 242 246 253 256 252 239 222 240 256 262 279 287 295 310 296 278 199 162 208 231 210 207 191 181 220 208 191 228 219 185 211 235 239 239 233 263 268 235 215 216 216 226 228 238 245 222 217 230 233 238 251 259 263 269 275 276 280 279 114 318 305 123 133 149 155 154 148 140 136 134 133 136 141 139 130
269 262 220 160 154 163 179 200 212 211 224 232 233 242 247 250 261 268 256 209 219 249 260 268 274 285 297 287 292 303 193 205 226 227 219 192 198 220 193 171 196 230 223 217 215 218 234 247 264 273 275 273 266 265 253 219 224 271 277 269 267 251 232 232 242 254 255 253 256 264 264 106 240 251 132 132 142 139 138 139 137 135 132 133 136 134 131 132
249 254 219 168 169 182 197 211 216 214 226 234 235 241 245 245 248 257 264 245 225 232 244 256 262 265 271 272 288 304 261 192 206 239 234 208 202 171 122 143 177 218 238 234 208 198 197 231 259 270 288 298 298 296 292 216 181 280 284 282 281 273 265 261 254 258 265 262 258 262 255 121 159 165 117 117 118 117 124 136 138 138 134 128 126 130 136 141
248 265 243 183 181 197 216 216 212 214 223 232 236 239 241 243 241 237 241 242 236 228 227 240 254 251 256 269 275 277 270 206 205 233 249 256 207 117 110 141 196 211 216 234 259 197 185 206 231 251 272 272 266 277 278 214 193 240 250 257 271 272 275 281 272 252 255 257 256 267 1 94 99 89 105 111 112 117 132 142 138 139 136 125 123 133 141 140
268 265 247 196 187 202 225 227 226 222 217 224 231 236 238 237 233 238 246 243 238 240 236 229 239 245 242 250 263 269 277 290 246 228 253 274 198 120 137 179 217 221 230 355 350 313 241 209 196 227 264 259 246 259 280 279 265 253 229 223 251 264 266 274 277 264 256 261 269 285 97 118 139 145 134 125 126 134 142 140 134 140 141 130 130 141 141 134
270 247 233 193 187 209 228 232 242 241 226 225 226 228 234 233 219 222 239 252 244 237 247 243 230 238 238 235 248 253 254 270 269 242 246 252 214 120 137 163 226 238 346 2 340 308 294 272 238 234 244 259 282 300 295 287 291 298 290 262 254 254 249 250 263 272 274 285 321 88 118 140 153 152 147 139 138 144 144 139 137 146 147 138 137 143 140 133
267 255 230 196 185 210 221 223 236 247 249 248 237 221 226 232 229 212 207 229 247 237 240 246 235 237 241 235 245 248 238 242 246 247 258 265 281 301 145 179 240 237 30 338 297 283 283 275 270 259 251 260 278 281 267 247 238 264 282 281 278 271 256 246 244 259 269 277 344 114 128 141 153 153 154 150 145 148 152 148 146 152 149 142 144 146 143 140
248 258 253 250 223 204 211 217 221 232 244 249 244 224 220 223 229 222 197 203 234 237 228 232 237 247 248 229 232 243 236 234 234 230 241 261 273 278 177 206 228 178 144 258 260 261 268 267 267 262 256 255 252 252 260 259 247 244 263 280 294 306 315 319 321 316 319 74 105 132 136 139 153 159 157 153 148 151 158 152 146 151 148 144 148 149 148 146
242 251 270 283 268 226 212 212 215 225 233 238 242 233 224 218 221 226 213 197 216 226 226 227 227 233 242 240 238 237 233 239 240 226 240 266 272 267 222 217 212 179 196 250 246 218 244 261 266 270 270 264 254 242 240 255 273 273 260 265 276 298 343 6 12 16 35 76 101 124 130 132 148 158 152 146 145 149 154 150 149 154 153 154 156 153 152 153
248 271 297 306 298 273 235 208 208 222 227 231 243 243 230 219 219 222 214 204 211 213 216 230 231 223 228 237 243 247 243 238 221 225 252 263 259 259 259 272 273 222 215 243 232 177 193 245 255 268 279 281 281 269 239 238 284 281 271 268 275 325 357 12 36 53 64 68 87 114 123 126 139 146 140 137 141 145 147 148 152 158 161 164 164 158 156 157
261 284 296 302 303 291 269 219 203 211 221 224 231 240 239 226 221 224 216 206 217 222 210 219 236 234 225 227 235 247 251 240 193 213 242 250 244 245 261 310 290 266 233 240 216 166 176 244 253 254 263 275 287 289 287 297 283 277 289 318 334 319 310 312 70 67 80 96 102 113 125 128 132 134 131 134 142 148 151 153 156 162 168 170 168 163 160 159
257 273 276 272 276 281 279 244 209 205 214 221 223 229 237 235 226 230 229 205 212 229 223 213 226 236 230 222 223 231 247 256 229 212 229 257 259 240 194 214 247 260 271 284 267 187 190 232 253 256 264 268 284 309 325 316 272 269 308 333 328 316 332 48 65 58 53 89 136 9 28 132 138 136 134 141 149 153 158 163 165 171 176 174 169 163 161 163